• Processing (Info)

  • MPEC 2022-V86 : 2022 UR40

    The following Minor Planet Electronic Circular may be linked-to from your own Web pages, but must not otherwise be redistributed electronically.

    A form allowing access to any MPEC is at the bottom of this page.


    Read MPEC 2022-V85 Read MPEC 2022-V87


    M.P.E.C. 2022-V86                              Issued 2022 November 4, 13:17 UT
    
         The Minor Planet Electronic Circulars contain information on unusual
             minor planets, routine data on comets and natural satellites,
             and occasional editorial announcements.  They are published
        on behalf of Division F of the International Astronomical Union by the
              Minor Planet Center, Smithsonian Astrophysical Observatory,
                              Cambridge, MA 02138, U.S.A.
    			  
                 Prepared using the Tamkin Foundation Computer Network
    
                                  MPC@CFA.HARVARD.EDU
                URL https://www.minorplanetcenter.net/    ISSN 1523-6714
    
                                    2022 UR40                                
    
    
    Observations:
         K22U40R* C2022 10 30.30460803 11 08.599-08 48 30.85         20.62GVEV086G96
         K22U40R  C2022 10 30.30979203 11 08.632-08 48 05.29         20.82GVEV086G96
         K22U40R  C2022 10 30.31500403 11 08.675-08 47 39.01         20.46GVEV086G96
         K22U40R  C2022 10 30.32019403 11 08.736-08 47 13.81         21.05GVEV086G96
         K22U40R KC2022 10 30.40622803 11 09.438-08 40 09.55         21.37GVEV086I52
         K22U40R KC2022 10 30.40788503 11 09.398-08 40 01.34         22.03GVEV086I52
         K22U40R KC2022 10 30.40954603 11 09.442-08 39 53.24         21.04GVEV086I52
         K22U40R KC2022 10 31.28924603 11 38.872-07 31 05.63         22.32GVEV086I52
         K22U40R KC2022 10 31.29113203 11 38.936-07 30 56.34         21.23GVEV086I52
         K22U40R KC2022 10 31.29302203 11 38.918-07 30 48.06         20.93GVEV086I52
         K22U40R KC2022 11 02.37350103 12 25.530-05 08 49.30         20.15GVEV086I52
         K22U40R KC2022 11 02.37736403 12 25.490-05 08 34.80         20.93GVEV086I52
    
    Observer details:
    G96 Mt. Lemmon Survey.  Observer D. C. Fuls.  Measurers E. J. Christensen, D.
        Fay, J. B. Fazekas, D. C. Fuls, A. R. Gibbs, A. D. Grauer, H. Groeller, J.
        K. Hogan, R. A. Kowalski, S. M. Larson, G. J. Leonard, D. Rankin, R. L.
        Seaman, A. Serrano, F. C. Shelly, K. W. Wierzchos.  1.5-m reflector + 10K
        CCD.
    I52 Steward Observatory, Mt. Lemmon Station.  Observers R. A. Kowalski, J. B.
        Fazekas.  Measurers E. J. Christensen, D. Fay, J. B. Fazekas, D. C. Fuls,
        A. R. Gibbs, A. D. Grauer, H. Groeller, J. K. Hogan, R. A. Kowalski, S. M.
        Larson, G. J. Leonard, D. Rankin, R. L. Seaman, A. Serrano, F. C. Shelly,
        K. W. Wierzchos.  1.0-m prime focus + CCD.
    
    Orbital elements:
    2022 UR40                                                Earth MOID = 0.0078 AU
    Epoch 2022 Aug. 9.0 TT = JDT 2459800.5                  Veres                   
    M 350.07327              (2000.0)            P               Q                  
    n   0.25412550     Peri.  208.97697     +0.95839800     +0.28335012             
    a   2.4685232      Node   134.51928     -0.25169268     +0.89583336             
    e   0.6226146      Incl.    2.76843     -0.13462569     +0.34233801             
    P   3.88           H   24.53          G   0.15           U   9                  
    Residuals in seconds of arc
    221030 G96  0.0   0.2-    221030 I52  0.5+  0.1+    221031 I52  0.4+  0.3+
    221030 G96  0.1-  0.3-    221030 I52  0.3-  0.1+    221031 I52  0.0   0.1+
    221030 G96  0.1-  0.3+    221030 I52  0.1+  0.0     221102 I52  0.2+  0.0
    221030 G96  0.2+  0.1-    221031 I52  0.4-  0.6-    221102 I52  0.3-  0.0
    
    Ephemeris:
    2022 UR40                a,e,i = 2.47, 0.62, 3                   q = 0.9316
    Date    TT    R. A. (2000) Decl.     Delta      r    Elong.  Phase     V
    2022 10 05    16 01 56.0 -49 23 22   0.07941 0.9648    61.5   114.4    23.4
    ...
    2022 10 20    02 52 59.8 -36 18 44   0.06227 1.0373   130.3    47.1    20.4
    ...
    2022 10 28    03 09 33.2 -12 22 04   0.1072  1.0883   150.4    26.8    21.1
    ...
    2022 11 03    03 12 37.9 -04 30 22   0.1479  1.1308   158.1    19.1    21.6
    2022 11 04    03 12 53.6 -03 33 49   0.1551  1.1381   159.0    18.2    21.7
    2022 11 05    03 13 06.7 -02 41 37   0.1624  1.1456   160.0    17.3    21.8
    ...
    2022 11 11    03 13 48.3 +01 24 08   0.2082  1.1916   163.9    13.3    22.3
    ...
    2022 11 19    03 14 08.6 +05 02 14   0.2752  1.2561   164.8    11.9    22.9
    ...
    2022 12 04    03 16 29.8 +09 21 29   0.4224  1.3829   156.3    16.7    24.3
    
    M. P. C. Staff               (C) Copyright 2022 MPC           M.P.E.C. 2022-V86
    


    Read MPEC 2022-V85 Read MPEC 2022-V87


    MPEC number:

    Enter an MPEC number in one of the following forms:

    • 1997-B01 (the full form)
    • J97B01 (the packed version of the full form)
    • B01 (the abbreviated form)